TimeEST,TemperatureF,Dew PointF,Humidity,Sea Level PressureIn,VisibilityMPH,Wind Direction,Wind SpeedMPH,Gust SpeedMPH,PrecipitationIn,Events,Conditions,WindDirDegrees,DateUTC
12:53 AM,59.0,48.9,69,29.82,10.0,WSW,12.7,20.7,N/A,,Clear,250,2013-02-27 05:53:00
1:53 AM,57.9,48.9,72,29.84,10.0,WSW,12.7,-,N/A,,Clear,250,2013-02-27 06:53:00
2:53 AM,57.0,46.9,69,29.84,10.0,West,10.4,18.4,N/A,,Clear,270,2013-02-27 07:53:00
3:53 AM,55.0,46.9,74,29.86,10.0,West,11.5,18.4,N/A,,Clear,270,2013-02-27 08:53:00
4:53 AM,54.0,46.9,77,29.87,10.0,West,9.2,-,N/A,,Clear,270,2013-02-27 09:53:00
5:53 AM,53.1,46.9,80,29.88,10.0,West,5.8,-,N/A,,Clear,270,2013-02-27 10:53:00
6:53 AM,52.0,46.9,83,29.90,10.0,WNW,5.8,-,N/A,,Clear,290,2013-02-27 11:53:00
7:53 AM,52.0,41.0,66,29.93,10.0,WNW,10.4,-,N/A,,Clear,290,2013-02-27 12:53:00
8:53 AM,52.0,37.9,59,29.95,10.0,WNW,10.4,18.4,N/A,,Clear,300,2013-02-27 13:53:00
9:53 AM,53.6,37.4,54,29.96,10.0,WNW,9.2,-,N/A,,Clear,290,2013-02-27 14:53:00
10:53 AM,54.0,37.9,55,29.97,10.0,WNW,5.8,-,N/A,,Clear,290,2013-02-27 15:53:00
11:53 AM,55.9,37.0,49,29.95,10.0,WSW,9.2,-,N/A,,Clear,250,2013-02-27 16:53:00
12:53 PM,57.9,39.0,49,29.94,10.0,WSW,10.4,-,N/A,,Clear,250,2013-02-27 17:53:00
1:53 PM,60.1,37.0,42,29.92,10.0,West,10.4,-,N/A,,Clear,280,2013-02-27 18:53:00
2:53 PM,60.1,39.0,46,29.90,10.0,West,10.4,17.3,N/A,,Clear,260,2013-02-27 19:53:00
3:53 PM,60.1,39.0,46,29.90,10.0,West,9.2,-,N/A,,Clear,270,2013-02-27 20:53:00
4:53 PM,60.1,39.0,46,29.89,10.0,West,10.4,-,N/A,,Clear,260,2013-02-27 21:53:00
5:53 PM,59.0,41.0,51,29.90,10.0,West,6.9,-,N/A,,Clear,270,2013-02-27 22:53:00
6:53 PM,57.9,41.0,53,29.91,10.0,West,6.9,-,N/A,,Clear,260,2013-02-27 23:53:00
7:53 PM,55.9,42.1,60,29.92,10.0,West,6.9,-,N/A,,Clear,260,2013-02-28 00:53:00
8:53 PM,55.9,42.1,60,29.93,10.0,West,6.9,-,N/A,,Clear,270,2013-02-28 01:53:00
9:53 PM,55.0,42.1,62,29.93,10.0,WSW,9.2,-,N/A,,Clear,250,2013-02-28 02:53:00
10:53 PM,54.0,42.1,64,29.93,10.0,West,6.9,-,N/A,,Clear,260,2013-02-28 03:53:00
11:53 PM,53.1,42.1,66,29.92,10.0,West,6.9,-,N/A,,Clear,270,2013-02-28 04:53:00